FW5929 Weather Reports


Display with metric or nautical units.
time (UTC)temp
F
wind
direction
speed
MPH
gust
MPH
rain 1hr
in
rain 24hr
in
rain mn
in
humidity
%
barometer
mb
20260903223815 67 290 0.0 1.0 0.00 0.00 0.00 85 1022.0
20260903223333 67 290 0.0 1.0 0.00 0.00 0.00 85 1022.0
20260903222829 67 290 0.0 0.0 0.00 0.00 0.00 85 1022.0
20260903222348 67 290 0.0 0.0 0.00 0.00 0.00 85 1021.9
20260903221821 67 290 0.0 0.0 0.00 0.00 0.00 84 1021.9
20260903221318 67 290 0.0 1.0 0.00 0.00 0.00 84 1021.9
20260903220844 67 290 0.0 1.0 0.00 0.00 0.00 84 1022.0
20260903220321 67 290 0.0 1.0 0.00 0.00 0.00 84 1022.1
20260903215816 67 290 0.0 1.0 0.00 0.00 0.00 84 1022.1
20260903215335 67 290 0.0 1.0 0.00 0.00 0.00 84 1022.1
20260903214826 67 290 0.0 0.0 0.00 0.00 0.00 84 1022.2
20260903214322 67 290 0.0 1.0 0.00 0.00 0.00 84 1022.1
20260903213831 67 290 0.0 1.0 0.00 0.00 0.00 84 1022.1
20260903213329 67 290 0.0 0.0 0.00 0.00 0.00 84 1022.2
20260903212825 67 290 0.0 0.0 0.00 0.00 0.00 84 1022.2
20260903212324 67 290 0.0 0.0 0.00 0.00 0.00 83 1022.2
20260903211839 67 290 0.0 0.0 0.00 0.00 0.00 83 1022.1
20260903211357 67 290 0.0 0.0 0.00 0.00 0.00 83 1022.2
20260903210852 67 290 0.0 1.0 0.00 0.00 0.00 83 1022.2
20260903210330 67 290 0.0 1.0 0.00 0.00 0.00 83 1022.3
20260903205826 67 290 0.0 1.0 0.00 0.00 0.00 83 1022.3
20260903205323 67 290 0.0 1.0 0.00 0.00 0.00 82 1022.4
20260903204820 67 290 0.0 1.0 0.00 0.00 0.00 82 1022.4
20260903204317 67 290 0.0 1.0 0.00 0.00 0.00 82 1022.4
20260903203832 67 290 0.0 2.0 0.00 0.00 0.00 82 1022.5
20260903203350 67 290 1.0 2.0 0.00 0.00 0.00 82 1022.5
20260903202826 66 290 1.0 2.0 0.00 0.00 0.00 83 1022.4
20260903202324 66 290 0.0 1.0 0.00 0.00 0.00 83 1022.4
20260903201820 66 290 0.0 1.0 0.00 0.00 0.00 82 1022.4
20260903201334 66 290 1.0 1.0 0.00 0.00 0.00 82 1022.3
20260903200829 67 290 0.0 1.0 0.00 0.00 0.00 81 1022.3
20260903200324 67 290 0.0 1.0 0.00 0.00 0.00 81 1022.3
20260903195820 68 290 0.0 0.0 0.00 0.00 0.00 81 1022.3
20260903195317 68 290 0.0 0.0 0.00 0.00 0.00 80 1022.3
20260903194832 69 290 0.0 1.0 0.00 0.00 0.00 80 1022.3
20260903194329 69 290 0.0 1.0 0.00 0.00 0.00 79 1022.3
20260903193825 70 290 0.0 1.0 0.00 0.00 0.00 78 1022.2
20260903193321 71 290 0.0 1.0 0.00 0.00 0.00 77 1022.2
20260903192818 71 290 0.0 1.0 0.00 0.00 0.00 77 1022.3
20260903192318 71 290 0.0 0.0 0.00 0.00 0.00 77 1022.2
20260903191831 72 290 0.0 2.0 0.00 0.00 0.00 75 1022.2
20260903191328 72 290 1.0 2.0 0.00 0.00 0.00 73 1022.2
20260903190824 72 290 1.0 2.0 0.00 0.00 0.00 74 1022.2
20260903190322 72 290 1.0 2.0 0.00 0.00 0.00 73 1022.0
20260903185820 73 290 0.0 2.0 0.00 0.00 0.00 73 1022.1
20260903185318 73 290 0.0 2.0 0.00 0.00 0.00 72 1022.1
20260903184832 73 290 0.0 2.0 0.00 0.00 0.00 71 1022.1
20260903184330 74 290 0.0 2.0 0.00 0.00 0.00 70 1022.1
20260903183846 74 290 0.0 2.0 0.00 0.00 0.00 70 1022.1
20260903183322 74 290 0.0 1.0 0.00 0.00 0.00 69 1022.1
20260903182837 74 290 0.0 1.0 0.00 0.00 0.00 68 1022.1
20260903182315 75 290 1.0 2.0 0.00 0.00 0.00 67 1022.1
20260903181831 76 294 0.0 2.0 0.00 0.00 0.00 65 1022.1
20260903181328 76 294 0.0 4.0 0.00 0.00 0.00 64 1022.1
20260903180824 77 294 2.0 4.0 0.00 0.00 0.00 63 1022.2
20260903180322 77 304 1.0 4.0 0.00 0.00 0.00 63 1022.0
20260903175818 77 319 2.0 4.0 0.00 0.00 0.00 62 1022.0
20260903175319 77 297 1.0 4.0 0.00 0.00 0.00 62 1021.9
20260903174856 78 275 2.0 5.0 0.00 0.00 0.00 61 1022.0
20260903174353 78 254 2.0 8.0 0.00 0.00 0.00 59 1022.0
20260903173826 78 243 4.0 8.0 0.00 0.00 0.00 59 1022.1
20260903173346 79 294 2.0 9.0 0.00 0.00 0.00 59 1022.0
20260903172820 79 261 6.0 9.0 0.00 0.00 0.00 59 1022.0
20260903172318 79 263 2.0 6.0 0.00 0.00 0.00 59 1022.0
20260903171815 79 278 3.0 6.0 0.00 0.00 0.00 60 1022.0
20260903171313 79 243 2.0 9.0 0.00 0.00 0.00 58 1022.0
20260903170830 79 261 3.0 12.0 0.00 0.00 0.00 59 1022.0
20260903170329 79 244 4.0 12.0 0.00 0.00 0.00 58 1022.0
20260903165825 79 254 4.0 8.0 0.00 0.00 0.00 58 1022.0
20260903165345 79 277 3.0 11.0 0.00 0.00 0.00 57 1021.9
20260903164819 79 267 2.0 11.0 0.00 0.00 0.00 57 1021.9
20260903164317 80 197 6.0 10.0 0.00 0.00 0.00 56 1021.8
20260903163832 79 255 3.0 8.0 0.00 0.00 0.00 58 1021.8
20260903163350 79 167 3.0 8.0 0.00 0.00 0.00 58 1021.9
20260903162824 79 273 4.0 8.0 0.00 0.00 0.00 57 1022.0
20260903162322 79 313 4.0 11.0 0.00 0.00 0.00 57 1022.0
20260903161839 80 270 5.0 15.0 0.00 0.00 0.00 55 1021.9
20260903161315 81 218 7.0 15.0 0.00 0.00 0.00 54 1022.0
20260903160830 81 307 4.0 11.0 0.00 0.00 0.00 55 1022.0
20260903160329 80 271 3.0 11.0 0.00 0.00 0.00 56 1021.9
20260903155824 80 348 5.0 10.0 0.00 0.00 0.00 56 1021.9
20260903155344 80 273 5.0 9.0 0.00 0.00 0.00 56 1022.0
20260903154818 80 230 2.0 10.0 0.00 0.00 0.00 56 1022.0
20260903154333 80 277 4.0 11.0 0.00 0.00 0.00 56 1022.0
20260903153823 81 256 4.0 12.0 0.00 0.00 0.00 54 1022.0
20260903153321 81 215 4.0 13.0 0.00 0.00 0.00 54 1022.0
20260903152818 81 291 5.0 13.0 0.00 0.00 0.00 55 1022.2
20260903152333 81 263 7.0 13.0 0.00 0.00 0.00 54 1022.2
20260903151826 81 246 5.0 13.0 0.00 0.00 0.00 55 1022.1
20260903151322 80 265 5.0 14.0 0.00 0.00 0.00 56 1022.1
20260903150818 80 319 5.0 15.0 0.00 0.00 0.00 54 1022.1
20260903150316 81 259 8.0 14.0 0.00 0.00 0.00 53 1022.1
20260903145832 81 204 3.0 12.0 0.00 0.00 0.00 54 1022.2
20260903145330 80 250 5.0 14.0 0.00 0.00 0.00 54 1022.2
20260903144826 82 253 4.0 17.0 0.00 0.00 0.00 51 1022.1
20260903144344 82 293 8.0 17.0 0.00 0.00 0.00 53 1022.1
20260903143817 82 270 7.0 15.0 0.00 0.00 0.00 52 1022.1
20260903143335 82 306 7.0 12.0 0.00 0.00 0.00 52 1022.2
20260903142831 82 304 6.0 11.0 0.00 0.00 0.00 52 1022.3
20260903142329 81 211 3.0 10.0 0.00 0.00 0.00 53 1022.4
20260903141825 81 265 4.0 13.0 0.00 0.00 0.00 53 1022.4
20260903141324 81 322 6.0 13.0 0.00 0.00 0.00 53 1022.4
20260903140839 80 256 7.0 13.0 0.00 0.00 0.00 54 1022.5
20260903140317 80 247 6.0 13.0 0.00 0.00 0.00 54 1022.6
20260903135833 81 273 7.0 14.0 0.00 0.00 0.00 53 1022.5
20260903135331 81 186 8.0 14.0 0.00 0.00 0.00 52 1022.5
20260903134826 81 283 6.0 14.0 0.00 0.00 0.00 52 1022.5
20260903134323 81 250 4.0 14.0 0.00 0.00 0.00 53 1022.5
20260903133820 81 241 4.0 15.0 0.00 0.00 0.00 53 1022.5
20260903133319 81 242 4.0 13.0 0.00 0.00 0.00 53 1022.6
20260903132816 80 267 3.0 11.0 0.00 0.00 0.00 56 1022.7
20260903132332 79 25 3.0 14.0 0.00 0.00 0.00 56 1022.7
20260903131830 79 212 8.0 14.0 0.00 0.00 0.00 54 1022.8
20260903131326 80 279 8.0 14.0 0.00 0.00 0.00 54 1022.7
20260903130843 81 260 8.0 14.0 0.00 0.00 0.00 53 1022.7
20260903130319 81 203 3.0 14.0 0.00 0.00 0.00 53 1022.8
20260903125830 80 268 7.0 16.0 0.00 0.00 0.00 52 1022.8
20260903125328 81 248 7.0 16.0 0.00 0.00 0.00 53 1022.8
20260903124821 80 267 4.0 11.0 0.00 0.00 0.00 55 1022.7
20260903124320 79 242 3.0 14.0 0.00 0.00 0.00 55 1022.8
20260903123835 79 257 7.0 13.0 0.00 0.00 0.00 54 1022.7
20260903123331 80 244 7.0 13.0 0.00 0.00 0.00 53 1022.7
20260903122847 79 298 4.0 15.0 0.00 0.00 0.00 54 1022.6
20260903122344 80 250 8.0 15.0 0.00 0.00 0.00 54 1022.9
20260903121819 79 257 7.0 16.0 0.00 0.00 0.00 54 1022.8
20260903121318 79 262 9.0 16.0 0.00 0.00 0.00 54 1022.8
20260903120814 79 307 7.0 15.0 0.00 0.00 0.00 54 1022.8
20260903120333 79 156 5.0 12.0 0.00 0.00 0.00 54 1022.7
20260903115827 79 276 4.0 11.0 0.00 0.00 0.00 53 1022.7
20260903115345 78 261 6.0 19.0 0.00 0.00 0.00 55 1022.7
20260903114817 79 272 9.0 19.0 0.00 0.00 0.00 54 1022.7
20260903114335 79 229 5.0 14.0 0.00 0.00 0.00 53 1022.8
20260903113852 79 139 5.0 16.0 0.00 0.00 0.00 55 1022.8
20260903113330 78 279 8.0 16.0 0.00 0.00 0.00 54 1022.8
20260903112824 78 324 7.0 13.0 0.00 0.00 0.00 55 1022.9
20260903112342 78 267 3.0 12.0 0.00 0.00 0.00 56 1022.9
20260903111817 78 209 5.0 12.0 0.00 0.00 0.00 56 1022.8
20260903111314 78 257 4.0 14.0 0.00 0.00 0.00 57 1022.9
20260903110830 77 294 8.0 14.0 0.00 0.00 0.00 56 1023.0
20260903110328 77 190 3.0 17.0 0.00 0.00 0.00 58 1022.9
20260903105822 77 190 10.0 17.0 0.00 0.00 0.00 57 1023.0
20260903105318 77 277 5.0 17.0 0.00 0.00 0.00 58 1023.0
20260903104816 77 171 7.0 14.0 0.00 0.00 0.00 59 1023.1
20260903104356 77 273 4.0 11.0 0.00 0.00 0.00 59 1023.1
20260903103846 76 297 6.0 12.0 0.00 0.00 0.00 60 1023.1
20260903103322 76 149 6.0 14.0 0.00 0.00 0.00 60 1023.2
20260903102817 75 212 7.0 14.0 0.00 0.00 0.00 61 1023.3
20260903102316 75 215 6.0 13.0 0.00 0.00 0.00 61 1023.3
20260903101830 75 208 7.0 13.0 0.00 0.00 0.00 61 1023.3
20260903101348 75 262 5.0 16.0 0.00 0.00 0.00 62 1023.5
20260903100823 76 191 5.0 15.0 0.00 0.00 0.00 60 1023.5
20260903100321 75 146 2.0 15.0 0.00 0.00 0.00 61 1023.5
20260903095836 74 206 9.0 15.0 0.00 0.00 0.00 62 1023.5
20260903095331 74 246 6.0 16.0 0.00 0.00 0.00 63 1023.5
20260903094826 74 195 6.0 16.0 0.00 0.00 0.00 63 1023.5
20260903094323 74 271 9.0 12.0 0.00 0.00 0.00 63 1023.6
20260903093818 73 207 4.0 12.0 0.00 0.00 0.00 66 1023.6
20260903093336 72 189 8.0 12.0 0.00 0.00 0.00 66 1023.8
20260903092830 72 268 4.0 10.0 0.00 0.00 0.00 67 1023.9
20260903092329 73 219 4.0 9.0 0.00 0.00 0.00 66 1023.9
20260903091823 72 271 4.0 9.0 0.00 0.00 0.00 68 1023.9
20260903091321 71 263 6.0 15.0 0.00 0.00 0.00 68 1023.8
20260903090817 71 235 6.0 15.0 0.00 0.00 0.00 68 1023.8
20260903090313 71 188 5.0 12.0 0.00 0.00 0.00 69 1023.8
20260903085828 71 213 5.0 11.0 0.00 0.00 0.00 70 1023.7
20260903085326 70 157 4.0 11.0 0.00 0.00 0.00 70 1023.7
20260903084843 70 269 5.0 12.0 0.00 0.00 0.00 70 1023.6
20260903084319 70 213 3.0 8.0 0.00 0.00 0.00 71 1023.7
20260903083814 70 288 2.0 8.0 0.00 0.00 0.00 70 1023.6
20260903083332 70 127 2.0 10.0 0.00 0.00 0.00 71 1023.6
20260903082826 69 272 4.0 9.0 0.00 0.00 0.00 72 1023.7
20260903082325 69 300 6.0 9.0 0.00 0.00 0.00 74 1023.7
20260903081822 68 268 4.0 9.0 0.00 0.00 0.00 74 1023.6
20260903081319 69 218 3.0 9.0 0.00 0.00 0.00 73 1023.7
20260903080814 69 231 6.0 9.0 0.00 0.00 0.00 71 1023.6
20260903080331 69 243 2.0 10.0 0.00 0.00 0.00 73 1023.4
20260903075826 68 273 2.0 7.0 0.00 0.00 0.00 74 1023.4
20260903075324 68 178 2.0 7.0 0.00 0.00 0.00 72 1023.4
20260903074820 68 215 2.0 8.0 0.00 0.00 0.00 73 1023.4
20260903074316 67 263 2.0 8.0 0.00 0.00 0.00 73 1023.4
20260903073830 67 188 2.0 4.0 0.00 0.00 0.00 73 1023.5
20260903073329 66 132 1.0 4.0 0.00 0.00 0.00 73 1023.5
20260903072840 66 188 1.0 4.0 0.00 0.00 0.00 74 1023.6
20260903072336 65 189 1.0 5.0 0.00 0.00 0.00 75 1023.4
20260903071850 65 196 2.0 7.0 0.00 0.00 0.00 75 1023.4
20260903071327 64 215 2.0 5.0 0.00 0.00 0.00 75 1023.4
20260903070822 64 217 2.0 3.0 0.00 0.00 0.00 76 1023.4
20260903070339 63 184 2.0 3.0 0.00 0.00 0.00 76 1023.4
20260903065853 62 184 2.0 3.0 0.00 0.00 0.00 77 1023.4
20260903065328 62 184 2.0 5.0 0.00 0.00 0.00 79 1023.4
20260903064822 61 180 3.0 5.0 0.00 0.00 0.00 79 1023.5
20260903064318 60 171 2.0 3.0 0.00 0.00 0.00 80 1023.3
20260903063814 60 173 2.0 3.0 0.00 0.00 0.00 81 1023.3
20260903063330 59 176 2.0 3.0 0.00 0.00 0.00 83 1023.4
20260903062843 58 177 1.0 3.0 0.00 0.00 0.00 84 1023.3
20260903062339 58 177 1.0 2.0 0.00 0.00 0.00 86 1023.2
20260903061833 57 177 1.0 2.0 0.00 0.00 0.00 87 1023.3
20260903061331 56 177 1.0 3.0 0.00 0.00 0.00 89 1023.1
20260903060822 55 177 2.0 3.0 0.00 0.00 0.00 89 1023.1
20260903060321 55 177 1.0 3.0 0.00 0.00 0.00 90 1023.0
20260903055816 54 177 2.0 3.0 0.00 0.00 0.00 90 1023.0
20260903055314 53 177 2.0 3.0 0.00 0.00 0.00 90 1023.0
20260903054829 53 177 2.0 3.0 0.00 0.00 0.00 90 1023.0
20260903054326 53 177 2.0 3.0 0.00 0.00 0.00 91 1023.0
20260903053841 53 177 2.0 3.0 0.00 0.00 0.00 91 1022.8
20260903053318 52 177 3.0 3.0 0.00 0.00 0.00 91 1022.7
20260903052815 52 177 2.0 3.0 0.00 0.00 0.00 91 1022.8
20260903052335 52 177 2.0 3.0 0.00 0.00 0.00 91 1022.8
20260903051824 52 177 2.0 4.0 0.00 0.00 0.00 91 1022.9
20260903051342 52 177 2.0 4.0 0.00 0.00 0.00 90 1022.8
20260903050816 52 177 1.0 3.0 0.00 0.00 0.00 90 1022.8
20260903050336 52 177 1.0 2.0 0.00 0.00 0.00 90 1022.8
20260903045853 52 177 1.0 2.0 0.00 0.00 0.00 90 1022.6
20260903045331 52 177 1.0 3.0 0.00 0.00 0.00 90 1022.5
20260903044827 52 177 2.0 3.0 0.00 0.00 0.00 90 1022.4
20260903044323 52 177 1.0 3.0 0.00 0.00 0.00 90 1022.2
20260903043819 52 177 2.0 2.0 0.00 0.00 0.00 90 1022.2
20260903043336 52 177 1.0 2.0 0.00 0.00 0.00 90 1022.3
20260903042832 52 177 1.0 3.0 0.00 0.00 0.00 90 1022.6
20260903042329 52 177 2.0 3.0 0.00 0.00 0.00 90 1022.6
20260903041824 52 177 2.0 3.0 0.00 0.00 0.00 90 1022.6
20260903041322 52 81 1.0 3.0 0.00 0.00 0.00 90 1022.5
20260903040819 52 18 0.0 2.0 0.00 0.00 0.00 90 1022.7
20260903040316 52 9 1.0 2.0 0.00 0.00 0.00 90 1022.7
20260903035833 52 9 0.0 1.0 0.00 0.00 0.00 90 1022.7
20260903035350 52 9 0.0 1.0 0.00 0.00 0.00 90 1022.6
20260903034823 52 9 0.0 0.0 0.00 0.00 0.00 90 1022.6
20260903034342 52 9 0.0 0.0 0.00 0.00 0.00 90 1022.6
20260903033818 52 9 0.0 0.0 0.00 0.00 0.00 90 1022.6
20260903033337 52 9 0.0 0.0 0.00 0.00 0.00 89 1022.6
20260903032833 52 9 0.0 0.0 0.00 0.00 0.00 89 1022.7
20260903032329 52 9 0.0 0.0 0.00 0.00 0.00 89 1022.7
20260903031822 52 9 0.0 0.0 0.00 0.00 0.00 89 1022.7
20260903031321 52 9 0.0 1.0 0.00 0.00 0.00 89 1022.7
20260903030817 52 9 0.0 1.0 0.00 0.00 0.00 89 1022.6
20260903030314 52 9 0.0 0.0 0.00 0.00 0.00 89 1022.5
20260903025826 52 9 0.0 0.0 0.00 0.00 0.00 89 1022.5
20260903025324 52 9 0.0 0.0 0.00 0.00 0.00 89 1022.5
20260903024840 52 9 0.0 0.0 0.00 0.00 0.00 89 1022.5
20260903024316 52 9 0.0 0.0 0.00 0.00 0.00 89 1022.4
20260903023831 52 9 0.0 0.0 0.00 0.00 0.00 89 1022.4
20260903023330 53 9 0.0 0.0 0.00 0.00 0.00 89 1022.4
20260903022825 53 9 0.0 0.0 0.00 0.00 0.00 88 1022.4
20260903022321 53 9 0.0 0.0 0.00 0.00 0.00 88 1022.4
20260903021816 53 9 0.0 1.0 0.00 0.00 0.00 88 1022.5
20260903021314 53 9 0.0 1.0 0.00 0.00 0.00 88 1022.4
20260903020830 53 9 1.0 1.0 0.00 0.00 0.00 88 1022.3
20260903020328 53 9 0.0 1.0 0.00 0.00 0.00 88 1022.3
20260903015823 53 9 0.0 0.0 0.00 0.00 0.00 88 1022.4
20260903015320 53 9 0.0 0.0 0.00 0.00 0.00 88 1022.5
20260903014834 53 9 0.0 1.0 0.00 0.00 0.00 87 1022.6
20260903014332 53 9 0.0 1.0 0.00 0.00 0.00 87 1022.6
20260903013842 53 9 0.0 1.0 0.00 0.00 0.00 87 1022.7
20260903013319 53 9 0.0 1.0 0.00 0.00 0.00 87 1022.7
20260903012834 53 9 0.0 1.0 0.00 0.00 0.00 87 1022.7
20260903012354 53 9 0.0 1.0 0.00 0.00 0.00 87 1022.7
20260903011828 53 9 0.0 1.0 0.00 0.00 0.00 87 1022.6
20260903011322 53 9 1.0 1.0 0.00 0.00 0.00 87 1022.6
20260903010820 53 9 0.0 1.0 0.00 0.00 0.00 87 1022.6
20260903010317 53 9 0.0 1.0 0.00 0.00 0.00 87 1022.6
20260903005832 53 9 0.0 1.0 0.00 0.00 0.00 87 1022.7
20260903005329 54 9 0.0 0.0 0.00 0.00 0.00 87 1022.7
20260903004826 54 9 0.0 0.0 0.00 0.00 0.00 87 1022.7
20260903004317 54 9 0.0 0.0 0.00 0.00 0.00 87 1022.6
20260903003832 54 9 0.0 1.0 0.00 0.00 0.00 87 1022.7
20260903003329 54 9 0.0 1.0 0.00 0.00 0.00 87 1022.6
20260903002826 54 9 0.0 2.0 0.00 0.00 0.00 87 1022.7
20260903002325 54 9 1.0 2.0 0.00 0.00 0.00 87 1022.7
20260903001821 54 9 0.0 2.0 0.00 0.00 0.00 87 1022.7
20260903001318 54 9 1.0 2.0 0.00 0.00 0.00 88 1022.8
20260903000833 54 9 1.0 1.0 0.00 0.00 0.00 87 1022.9
20260903000349 54 9 1.0 1.0 0.00 0.00 0.00 87 1022.9
20260902235825 54 9 0.0 1.0 0.00 0.00 0.00 87 1023.0
20260902235322 55 9 0.0 0.0 0.00 0.00 0.00 87 1023.1
20260902234818 55 9 0.0 0.0 0.00 0.00 0.00 86 1023.0
20260902234313 55 9 0.0 0.0 0.00 0.00 0.00 86 1023.0
20260902233826 55 9 0.0 0.0 0.00 0.00 0.00 86 1023.0
20260902233324 56 9 0.0 0.0 0.00 0.00 0.00 86 1023.0
20260902232818 56 9 0.0 0.0 0.00 0.00 0.00 85 1023.0
20260902232336 56 9 0.0 0.0 0.00 0.00 0.00 85 1023.1
20260902231826 57 9 0.0 0.0 0.00 0.00 0.00 84 1023.1
20260902231323 57 9 0.0 0.0 0.00 0.00 0.00 84 1023.1
20260902230819 57 9 0.0 0.0 0.00 0.00 0.00 84 1023.2
20260902230339 57 9 0.0 1.0 0.00 0.00 0.00 84 1023.1
20260902225832 57 9 0.0 1.0 0.00 0.00 0.00 84 1023.1
20260902225329 57 9 0.0 1.0 0.00 0.00 0.00 84 1023.2
20260902224823 57 9 0.0 0.0 0.00 0.00 0.00 85 1023.2
20260902224322 56 9 0.0 0.0 0.00 0.00 0.00 85 1023.2